Time,TemperatureF,DewpointF,PressureIn,WindDirection,WindDirectionDegrees,WindSpeedMPH,WindSpeedGustMPH,Humidity,HourlyPrecipIn,Conditions,Clouds,dailyrainin,SolarRadiationWatts/m^2,SoftwareType,DateUTC
2013-09-12 00:05:00,78.0,74.0,-100.00,ESE,104,0.0,0.0,88,0.00,,,0.03,0.000000,,2013-09-12 04:05:00,
2013-09-12 00:14:00,78.0,74.0,-100.00,ESE,104,0.0,0.0,88,0.00,,,0.03,0.000000,,2013-09-12 04:14:00,
2013-09-12 00:44:00,79.0,74.0,-100.00,SE,124,0.0,0.0,84,0.00,,,0.03,0.000000,,2013-09-12 04:44:00,
2013-09-12 00:54:00,79.0,74.0,-100.00,SE,124,0.0,0.0,84,0.00,,,0.03,0.000000,,2013-09-12 04:54:00,
2013-09-12 01:03:00,79.0,74.0,-100.00,SE,124,0.0,0.0,84,0.00,,,0.03,0.000000,,2013-09-12 05:03:00,
2013-09-12 01:13:00,79.0,74.0,-100.00,SE,124,0.0,0.0,84,0.00,,,0.03,0.000000,,2013-09-12 05:13:00,
2013-09-12 01:43:00,78.0,74.0,-100.00,ESE,109,0.0,0.0,87,0.00,,,0.03,0.000000,,2013-09-12 05:43:00,
2013-09-12 01:53:00,78.0,74.0,-100.00,ESE,109,0.0,0.0,87,0.00,,,0.03,0.000000,,2013-09-12 05:53:00,
2013-09-12 02:02:00,78.0,74.0,-100.00,ESE,109,0.0,0.0,87,0.00,,,0.03,0.000000,,2013-09-12 06:02:00,
2013-09-12 02:12:00,78.0,74.0,-100.00,ESE,109,0.0,0.0,87,0.00,,,0.03,0.000000,,2013-09-12 06:12:00,
2013-09-12 02:42:00,78.0,74.0,-100.00,East,89,4.0,8.0,88,0.00,,,0.03,0.000000,,2013-09-12 06:42:00,
2013-09-12 02:52:00,78.0,74.0,-100.00,East,89,4.0,8.0,88,0.00,,,0.03,0.000000,,2013-09-12 06:52:00,
2013-09-12 03:02:00,78.0,74.0,-100.00,East,89,4.0,8.0,88,0.00,,,0.03,0.000000,,2013-09-12 07:02:00,
2013-09-12 03:12:00,78.0,74.0,-100.00,East,89,4.0,8.0,88,0.00,,,0.03,0.000000,,2013-09-12 07:12:00,
2013-09-12 03:44:00,78.0,74.0,-100.00,East,84,0.0,7.0,89,0.00,,,0.03,0.000000,,2013-09-12 07:44:00,
2013-09-12 03:53:00,78.0,74.0,-100.00,East,84,0.0,7.0,89,0.00,,,0.03,0.000000,,2013-09-12 07:53:00,
2013-09-12 04:02:00,78.0,74.0,-100.00,East,84,0.0,7.0,89,0.00,,,0.03,0.000000,,2013-09-12 08:02:00,
2013-09-12 04:11:00,78.0,74.0,-100.00,East,84,0.0,7.0,89,0.00,,,0.03,0.000000,,2013-09-12 08:11:00,
2013-09-12 04:42:00,78.0,75.0,-100.00,East,96,4.0,7.0,90,0.00,,,0.03,0.000000,,2013-09-12 08:42:00,
2013-09-12 04:52:00,78.0,75.0,-100.00,East,96,4.0,7.0,90,0.00,,,0.03,0.000000,,2013-09-12 08:52:00,
2013-09-12 05:02:00,78.0,75.0,-100.00,East,96,4.0,7.0,90,0.00,,,0.03,0.000000,,2013-09-12 09:02:00,
2013-09-12 05:12:00,78.0,75.0,-100.00,East,96,4.0,7.0,90,0.00,,,0.03,0.000000,,2013-09-12 09:12:00,
2013-09-12 05:43:00,78.0,75.0,-100.00,East,101,3.0,8.0,90,0.00,,,0.03,0.000000,,2013-09-12 09:43:00,
2013-09-12 05:53:00,78.0,75.0,-100.00,East,101,3.0,8.0,90,0.00,,,0.03,0.000000,,2013-09-12 09:53:00,
2013-09-12 06:03:00,78.0,75.0,-100.00,East,101,3.0,8.0,90,0.00,,,0.03,0.000000,,2013-09-12 10:03:00,
2013-09-12 06:12:00,78.0,75.0,-100.00,East,101,3.0,8.0,90,0.00,,,0.03,0.000000,,2013-09-12 10:12:00,
2013-09-12 06:43:00,78.0,75.0,-100.00,East,93,2.0,7.0,90,0.00,,,0.03,0.000000,,2013-09-12 10:43:00,
2013-09-12 06:53:00,78.0,75.0,-100.00,East,93,2.0,7.0,90,0.00,,,0.03,0.000000,,2013-09-12 10:53:00,
2013-09-12 07:03:00,78.0,75.0,-100.00,East,93,2.0,7.0,90,0.00,,,0.03,0.000000,,2013-09-12 11:03:00,
2013-09-12 07:11:00,78.0,75.0,-100.00,East,93,2.0,7.0,90,0.00,,,0.03,0.000000,,2013-09-12 11:11:00,
2013-09-12 07:42:00,77.0,74.0,-100.00,ENE,71,3.0,6.0,91,0.00,,,0.03,0.000000,,2013-09-12 11:42:00,
2013-09-12 07:52:00,77.0,74.0,-100.00,ENE,71,3.0,6.0,91,0.00,,,0.03,0.000000,,2013-09-12 11:52:00,
2013-09-12 08:01:00,77.0,74.0,-100.00,ENE,71,3.0,6.0,91,0.00,,,0.03,0.000000,,2013-09-12 12:01:00,
2013-09-12 08:12:00,77.0,74.0,-100.00,ENE,71,3.0,6.0,91,0.00,,,0.03,0.000000,,2013-09-12 12:12:00,
2013-09-12 08:42:00,78.0,74.0,-100.00,East,79,4.0,7.0,89,0.00,,,0.03,25.000000,,2013-09-12 12:42:00,
2013-09-12 08:52:00,78.0,74.0,-100.00,East,79,4.0,7.0,89,0.00,,,0.03,25.000000,,2013-09-12 12:52:00,
2013-09-12 09:02:00,78.0,74.0,-100.00,East,79,4.0,7.0,89,0.00,,,0.03,25.000000,,2013-09-12 13:02:00,
2013-09-12 09:11:00,78.0,74.0,-100.00,East,79,4.0,7.0,89,0.00,,,0.03,25.000000,,2013-09-12 13:11:00,
2013-09-12 09:42:00,81.0,75.0,-100.00,ESE,105,5.0,9.0,82,0.00,,,0.03,136.000000,,2013-09-12 13:42:00,
2013-09-12 09:52:00,81.0,75.0,-100.00,ESE,105,5.0,9.0,82,0.00,,,0.03,136.000000,,2013-09-12 13:52:00,
2013-09-12 10:02:00,81.0,75.0,-100.00,ESE,105,5.0,9.0,82,0.00,,,0.03,136.000000,,2013-09-12 14:02:00,
2013-09-12 10:11:00,81.0,75.0,-100.00,ESE,105,5.0,9.0,82,0.00,,,0.03,136.000000,,2013-09-12 14:11:00,
2013-09-12 10:42:00,82.0,74.0,-100.00,ESE,115,5.0,9.0,77,0.00,,,0.03,225.000000,,2013-09-12 14:42:00,
2013-09-12 10:52:00,82.0,74.0,-100.00,ESE,115,5.0,9.0,77,0.00,,,0.03,225.000000,,2013-09-12 14:52:00,
2013-09-12 11:02:00,82.0,74.0,-100.00,ESE,115,5.0,9.0,77,0.00,,,0.03,225.000000,,2013-09-12 15:02:00,
2013-09-12 11:11:00,82.0,74.0,-100.00,ESE,115,5.0,9.0,77,0.00,,,0.03,225.000000,,2013-09-12 15:11:00,
2013-09-12 11:44:00,85.0,75.0,-100.00,ESE,107,5.0,10.0,71,0.00,,,-99.99,405.000000,,2013-09-12 15:44:00,
2013-09-12 11:54:00,85.0,75.0,-100.00,ESE,107,5.0,10.0,71,0.00,,,-99.99,405.000000,,2013-09-12 15:54:00,
2013-09-12 12:03:00,85.0,75.0,-100.00,ESE,107,5.0,10.0,71,0.00,,,-99.99,405.000000,,2013-09-12 16:03:00,
2013-09-12 12:13:00,85.0,75.0,-100.00,ESE,107,5.0,10.0,71,0.00,,,-99.99,405.000000,,2013-09-12 16:13:00,
2013-09-12 12:43:00,88.0,74.0,-100.00,ESE,105,3.0,9.0,64,0.00,,,0.03,613.000000,,2013-09-12 16:43:00,
2013-09-12 12:53:00,88.0,74.0,-100.00,ESE,105,3.0,9.0,64,0.00,,,0.03,613.000000,,2013-09-12 16:53:00,
2013-09-12 13:03:00,88.0,74.0,-100.00,ESE,105,3.0,9.0,64,0.00,,,0.03,613.000000,,2013-09-12 17:03:00,
2013-09-12 13:12:00,88.0,74.0,-100.00,ESE,105,3.0,9.0,64,0.00,,,0.03,613.000000,,2013-09-12 17:12:00,
2013-09-12 13:43:00,87.0,74.0,-100.00,SSE,163,6.0,15.0,66,0.00,,,0.03,702.000000,,2013-09-12 17:43:00,
2013-09-12 13:54:00,87.0,74.0,-100.00,SSE,163,6.0,15.0,66,0.00,,,0.03,702.000000,,2013-09-12 17:54:00,
2013-09-12 14:02:00,87.0,74.0,-100.00,SSE,163,6.0,15.0,66,0.00,,,0.03,702.000000,,2013-09-12 18:02:00,
2013-09-12 14:12:00,87.0,74.0,-100.00,SSE,163,6.0,15.0,66,0.00,,,0.03,702.000000,,2013-09-12 18:12:00,
2013-09-12 14:42:00,87.0,74.0,-100.00,South,182,5.0,11.0,66,0.00,,,0.03,703.000000,,2013-09-12 18:42:00,
2013-09-12 14:52:00,87.0,74.0,-100.00,South,182,5.0,11.0,66,0.00,,,0.03,703.000000,,2013-09-12 18:52:00,
2013-09-12 15:02:00,87.0,74.0,-100.00,South,182,5.0,11.0,66,0.00,,,0.03,703.000000,,2013-09-12 19:02:00,
2013-09-12 15:12:00,87.0,74.0,-100.00,South,182,5.0,11.0,66,0.00,,,0.03,703.000000,,2013-09-12 19:12:00,
2013-09-12 15:42:00,87.0,75.0,-100.00,South,182,5.0,11.0,67,0.00,,,0.00,686.000000,,2013-09-12 19:42:00,
2013-09-12 15:52:00,87.0,75.0,-100.00,South,182,5.0,11.0,67,0.00,,,0.00,686.000000,,2013-09-12 19:52:00,
2013-09-12 16:02:00,87.0,75.0,-100.00,South,182,5.0,11.0,67,0.00,,,0.00,686.000000,,2013-09-12 20:02:00,
2013-09-12 16:12:00,87.0,75.0,-100.00,South,182,5.0,11.0,67,0.00,,,0.00,686.000000,,2013-09-12 20:12:00,
2013-09-12 16:42:00,87.0,74.0,-100.00,SSW,205,4.0,9.0,66,0.00,,,0.00,575.000000,,2013-09-12 20:42:00,
2013-09-12 16:52:00,87.0,74.0,-100.00,SSW,205,4.0,9.0,66,0.00,,,0.00,575.000000,,2013-09-12 20:52:00,
2013-09-12 17:02:00,87.0,74.0,-100.00,SSW,205,4.0,9.0,66,0.00,,,0.00,575.000000,,2013-09-12 21:02:00,
2013-09-12 17:11:00,87.0,74.0,-100.00,SSW,205,4.0,9.0,66,0.00,,,0.00,575.000000,,2013-09-12 21:11:00,
2013-09-12 17:43:00,87.0,75.0,-100.00,WSW,238,5.0,11.0,67,0.00,,,0.00,430.000000,,2013-09-12 21:43:00,
2013-09-12 17:54:00,87.0,75.0,-100.00,WSW,238,5.0,11.0,67,0.00,,,0.00,430.000000,,2013-09-12 21:54:00,
2013-09-12 18:04:00,87.0,75.0,-100.00,WSW,238,5.0,11.0,67,0.00,,,0.00,430.000000,,2013-09-12 22:04:00,
2013-09-12 18:13:00,87.0,75.0,-100.00,WSW,238,5.0,11.0,67,0.00,,,0.00,430.000000,,2013-09-12 22:13:00,
2013-09-12 18:43:00,86.0,75.0,-100.00,WSW,244,3.0,8.0,69,0.00,,,0.00,280.000000,,2013-09-12 22:43:00,
2013-09-12 18:54:00,86.0,75.0,-100.00,WSW,244,3.0,8.0,69,0.00,,,0.00,280.000000,,2013-09-12 22:54:00,
2013-09-12 19:04:00,86.0,75.0,-100.00,WSW,244,3.0,8.0,69,0.00,,,0.00,280.000000,,2013-09-12 23:04:00,
2013-09-12 19:12:00,86.0,75.0,-100.00,WSW,244,3.0,8.0,69,0.00,,,0.00,280.000000,,2013-09-12 23:12:00,
2013-09-12 19:43:00,83.0,74.0,-100.00,WSW,242,0.0,6.0,74,0.00,,,0.00,80.000000,,2013-09-12 23:43:00,
2013-09-12 19:53:00,83.0,74.0,-100.00,WSW,242,0.0,6.0,74,0.00,,,0.00,80.000000,,2013-09-12 23:53:00,
2013-09-12 20:01:00,83.0,74.0,-100.00,WSW,242,0.0,6.0,74,0.00,,,0.00,80.000000,,2013-09-13 00:01:00,
2013-09-12 20:12:00,83.0,74.0,-100.00,WSW,242,0.0,6.0,74,0.00,,,0.00,80.000000,,2013-09-13 00:12:00,
2013-09-12 20:42:00,78.0,72.0,-100.00,ENE,77,5.0,13.0,82,0.00,,,0.00,2.000000,,2013-09-13 00:42:00,
2013-09-12 20:52:00,78.0,72.0,-100.00,ENE,77,5.0,13.0,82,0.00,,,0.00,2.000000,,2013-09-13 00:52:00,
2013-09-12 21:02:00,78.0,72.0,-100.00,ENE,77,5.0,13.0,82,0.00,,,0.00,2.000000,,2013-09-13 01:02:00,
2013-09-12 21:11:00,78.0,72.0,-100.00,ENE,77,5.0,13.0,82,0.00,,,0.00,2.000000,,2013-09-13 01:11:00,
2013-09-12 21:42:00,77.0,73.0,-100.00,East,82,4.0,12.0,88,0.00,,,0.00,0.000000,,2013-09-13 01:42:00,
2013-09-12 21:53:00,77.0,73.0,-100.00,East,82,4.0,12.0,88,0.00,,,0.00,0.000000,,2013-09-13 01:53:00,
2013-09-12 22:02:00,77.0,73.0,-100.00,East,82,4.0,12.0,88,0.00,,,0.00,0.000000,,2013-09-13 02:02:00,
2013-09-12 22:12:00,77.0,73.0,-100.00,East,82,4.0,12.0,88,0.00,,,0.00,0.000000,,2013-09-13 02:12:00,
2013-09-12 22:43:00,77.0,73.0,-100.00,ESE,103,0.0,9.0,87,0.00,,,0.00,0.000000,,2013-09-13 02:43:00,
2013-09-12 22:53:00,77.0,73.0,-100.00,ESE,103,0.0,9.0,87,0.00,,,0.00,0.000000,,2013-09-13 02:53:00,
2013-09-12 23:02:00,77.0,73.0,-100.00,ESE,103,0.0,9.0,87,0.00,,,0.00,0.000000,,2013-09-13 03:02:00,
2013-09-12 23:12:00,77.0,73.0,-100.00,ESE,103,0.0,9.0,87,0.00,,,0.00,0.000000,,2013-09-13 03:12:00,
2013-09-12 23:45:00,76.0,73.0,-100.00,ESE,113,0.0,4.0,90,0.00,,,0.00,0.000000,,2013-09-13 03:45:00,
2013-09-12 23:55:00,76.0,73.0,-100.00,ESE,113,0.0,4.0,90,0.00,,,0.00,0.000000,,2013-09-13 03:55:00,